Location: Unspecified
(49.2170°N, 0.0000°E)
Time: 15:10:54
(UTC+00:00)

Tiros 1 despin weight - Pass Details

Date: 26 January 2021
Orbit: 593 x 642 km, 48.2° (Epoch: 07 March)

Event Time Altitude Azimuth Distance (km) Brightness Sun altitude
Rises 15:44:55 0° 261° (W) 2,885 ? 7.5°
Reaches altitude 10° 15:47:14 10° 260° (W) 1,972 ? 7.3°
Maximum altitude 15:51:46 78° 175° (S) 626 ? 6.7°
Drops below altitude 10° 15:56:13 10° 89° (E) 1,944 ? 6.1°
Sets 15:58:30 0° 88° (E) 2,841 ? 5.8°
